Weather History for Myrtle Beach, SC

Change the Weather History Date:

Friday, February 8, 2013

  Actual Average Record
Temperature  
Mean Temperature 55 °F -  
Max Temperature 62 °F 54 °F 74 °F (2009)
Min Temperature 48 °F 37 °F 22 °F (1951)
Degree Days  
Heating Degree Days 10    
Growing Degree Days 5 (Base 50)    
Moisture  
Dew Point 47 °F    
Average Humidity 79    
Maximum Humidity 100    
Minimum Humidity 52    
Precipitation  
Precipitation 0.06 in - - ()
Sea Level Pressure  
Sea Level Pressure 29.82 in    
Wind  
Wind Speed 11 mph (NW)    
Max Wind Speed 17 mph    
Max Gust Speed 28 mph    
Visibility 10 miles    
Events      
Averages and records for this station are not official NWS values.
T = Trace of Precipitation, MM = Missing Value Source: NWS Daily Summary

Daily Weather History Graph

Daily Weather History Graph

Search for Another Location

Airport:

Trip Planner

Search our weather history database for the weather conditions in past years. The results will help you decide how hot, cold, wet, or windy it might be!

Date:

Astronomy

Feb. 08, 2013 Rise Set
Actual Time 7:06 AM EST 5:53 PM EST
Civil Twilight 6:40 AM EST 6:19 PM EST
Nautical Twilight 6:11 AM EST 6:49 PM EST
Astronomical Twilight 5:42 AM EST 7:18 PM EST
Moon 5:31 AM EST (2/8) 4:26 PM EST (2/8)
Length of Visible Light 11h 39m
Length of Day
10h 47m
Waning Crescent, 3% of the Moon is Illuminated
Feb 8
Waning Crescent
Feb 10
New
Feb 17
First Quarter
Feb 25
Full
Mar 4
Last Quarter

Hourly Weather History & Observations

Time (EST) Temp. Dew Point Humidity Pressure Visibility Wind Dir Wind Speed Gust Speed Precip Events Conditions
12:15 AM 57.2 °F 57.2 °F 100% 29.72 in 10.0 mi NNE 6.9 mph 27.6 mph 0.01 in   Overcast
12:35 AM 57.2 °F 55.4 °F 94% 29.70 in 10.0 mi East 9.2 mph - 0.02 in   Overcast
12:55 AM 57.2 °F 55.4 °F 94% 29.68 in 10.0 mi NNE 10.4 mph - 0.02 in   Overcast
1:15 AM 55.4 °F 55.4 °F 100% 29.66 in 8.0 mi ENE 10.4 mph - 0.03 in   Overcast
1:55 AM 53.6 °F 51.8 °F 94% 29.68 in 4.0 mi NW 12.7 mph 19.6 mph N/A   Overcast
2:15 AM 53.6 °F 51.8 °F 94% 29.67 in 10.0 mi NNW 12.7 mph - N/A   Overcast
2:35 AM 53.6 °F 50.0 °F 88% 29.67 in 10.0 mi NNW 13.8 mph - 0.01 in   Overcast
2:55 AM 51.8 °F 48.2 °F 88% 29.66 in 10.0 mi NNW 13.8 mph 19.6 mph 0.01 in   Overcast
3:15 AM 51.8 °F 48.2 °F 88% 29.66 in 10.0 mi NW 11.5 mph 18.4 mph N/A   Overcast
3:35 AM 51.8 °F 48.2 °F 88% 29.68 in 10.0 mi NW 11.5 mph - N/A   Overcast
3:55 AM 51.8 °F 48.2 °F 88% 29.68 in 9.0 mi NW 15.0 mph - N/A   Overcast
4:15 AM 51.8 °F 48.2 °F 88% 29.70 in 10.0 mi NW 12.7 mph - N/A   Overcast
4:35 AM 51.8 °F 46.4 °F 82% 29.71 in 10.0 mi NW 11.5 mph - N/A   Overcast
4:55 AM 50.0 °F 46.4 °F 87% 29.72 in 10.0 mi NW 15.0 mph 23.0 mph N/A   Overcast
5:15 AM 50.0 °F 46.4 °F 87% 29.75 in 10.0 mi NW 15.0 mph - N/A   Overcast
5:35 AM 48.2 °F 44.6 °F 87% 29.75 in 10.0 mi NW 15.0 mph 20.7 mph N/A   Overcast
5:55 AM 48.2 °F 44.6 °F 87% 29.75 in 10.0 mi NW 17.3 mph 25.3 mph N/A   Overcast
6:45 AM 48.2 °F 44.6 °F 87% 29.79 in 8.0 mi NNW 16.1 mph - N/A   Overcast
7:45 AM 48.2 °F 44.6 °F 87% 29.83 in 10.0 mi NNW 11.5 mph - N/A   Overcast
8:45 AM 50.0 °F 44.6 °F 82% 29.87 in 10.0 mi NNW 13.8 mph - N/A   Scattered Clouds
9:50 AM 55.4 °F 44.6 °F 67% 29.88 in 10.0 mi NNW 13.8 mph - N/A   Clear
10:50 AM 57.2 °F 44.6 °F 63% 29.89 in 10.0 mi WNW 10.4 mph - N/A   Clear
11:45 AM 60.8 °F 46.4 °F 59% 29.98 in 10.0 mi NW 11.5 mph - N/A   Partly Cloudy
12:45 PM 60.8 °F 46.4 °F 59% 29.88 in 10.0 mi NW 11.5 mph - N/A   Clear
1:53 PM 60.8 °F 46.4 °F 59% - - WNW 11.5 mph - N/A   Clear
2:45 PM 62.6 °F 44.6 °F 52% 29.87 in 10.0 mi WNW 13.8 mph - N/A   Clear
3:45 PM 62.6 °F 46.4 °F 55% 29.87 in 10.0 mi NW 11.5 mph - N/A   Clear
4:45 PM 62.6 °F 44.6 °F 52% 29.88 in 10.0 mi NW 11.5 mph - N/A   Clear
5:45 PM 59.0 °F 44.6 °F 59% 29.90 in 10.0 mi WNW 9.2 mph - N/A   Mostly Cloudy
6:45 PM 57.2 °F 46.4 °F 67% 29.93 in 10.0 mi West 6.9 mph - N/A   Overcast
7:50 PM 57.2 °F 46.4 °F 67% 29.95 in 10.0 mi West 8.1 mph - N/A   Scattered Clouds
8:45 PM 53.6 °F 46.4 °F 77% 29.97 in 10.0 mi WSW 6.9 mph - N/A   Clear
9:45 PM 53.6 °F 46.4 °F 77% 29.99 in 10.0 mi West 8.1 mph - N/A   Partly Cloudy
10:55 PM 51.8 °F 46.4 °F 82% 30.02 in 10.0 mi WNW 5.8 mph - N/A   Clear
11:15 PM 51.8 °F 44.6 °F 76% 30.03 in 10.0 mi West 8.1 mph - N/A   Clear
11:35 PM 50.0 °F 44.6 °F 82% 30.04 in 10.0 mi NW 8.1 mph - N/A   Clear
11:55 PM 51.8 °F 42.8 °F 71% 30.05 in 10.0 mi NW 10.4 mph 18.4 mph N/A   Clear